| time (UTC) | temp C | wind direction | speed KPH | gust KPH | rain 1hr cm | rain 24hr cm | rain mn cm | humidity % | barometer mb |
| 20260901103515 | 26 | 247 | 9.7 | 11.3 | 0.00 | 0.00 | 0.00 | 66 | 1016.5 |
| 20260901103016 | 26 | 244 | 9.7 | 9.7 | 0.00 | 0.00 | 0.00 | 65 | 1016.4 |
| 20260901102515 | 26 | 234 | 9.7 | 11.3 | 0.00 | 0.00 | 0.00 | 64 | 1016.5 |
| 20260901102015 | 26 | 212 | 9.7 | 11.3 | 0.00 | 0.00 | 0.00 | 64 | 1016.5 |
| 20260901101515 | 26 | 210 | 11.3 | 11.3 | 0.00 | 0.00 | 0.00 | 63 | 1016.5 |
| 20260901101015 | 26 | 206 | 9.7 | 11.3 | 0.00 | 0.00 | 0.00 | 63 | 1016.5 |
| 20260901100515 | 26 | 205 | 9.7 | 9.7 | 0.00 | 0.00 | 0.00 | 63 | 1016.5 |
| 20260901095515 | 26 | 199 | 8.0 | 9.7 | 0.00 | 0.00 | 0.00 | 63 | 1016.5 |
| 20260901095015 | 26 | 193 | 8.0 | 11.3 | 0.00 | 0.00 | 0.00 | 62 | 1016.5 |
| 20260901094515 | 26 | 178 | 9.7 | 11.3 | 0.00 | 0.00 | 0.00 | 62 | 1016.5 |
| 20260901094015 | 26 | 197 | 8.0 | 8.0 | 0.00 | 0.00 | 0.00 | 62 | 1016.6 |
| 20260901093515 | 26 | 177 | 6.4 | 9.7 | 0.00 | 0.00 | 0.00 | 63 | 1016.6 |
| 20260901092515 | 26 | 170 | 9.7 | 11.3 | 0.00 | 0.00 | 0.00 | 62 | 1016.6 |
| 20260901092015 | 26 | 151 | 8.0 | 11.3 | 0.00 | 0.00 | 0.00 | 62 | 1016.6 |
| 20260901091514 | 26 | 166 | 9.7 | 12.9 | 0.00 | 0.00 | 0.00 | 61 | 1016.6 |
| 20260901091014 | 27 | 143 | 8.0 | 14.5 | 0.00 | 0.00 | 0.00 | 61 | 1016.5 |
| 20260901085514 | 27 | 143 | 11.3 | 14.5 | 0.00 | 0.00 | 0.00 | 60 | 1016.5 |
| 20260901085015 | 27 | 144 | 11.3 | 12.9 | 0.00 | 0.00 | 0.00 | 60 | 1016.5 |
| 20260901084514 | 27 | 133 | 9.7 | 11.3 | 0.00 | 0.00 | 0.00 | 60 | 1016.4 |
| 20260901084014 | 27 | 144 | 11.3 | 12.9 | 0.00 | 0.00 | 0.00 | 59 | 1016.4 |
| 20260901083515 | 27 | 137 | 8.0 | 12.9 | 0.00 | 0.00 | 0.00 | 59 | 1016.4 |
| 20260901083014 | 27 | 140 | 11.3 | 11.3 | 0.00 | 0.00 | 0.00 | 59 | 1016.4 |
| 20260901082515 | 27 | 129 | 9.7 | 12.9 | 0.00 | 0.00 | 0.00 | 59 | 1016.3 |
| 20260901082015 | 27 | 136 | 11.3 | 12.9 | 0.00 | 0.00 | 0.00 | 59 | 1016.2 |
| 20260901081514 | 27 | 129 | 11.3 | 12.9 | 0.00 | 0.00 | 0.00 | 59 | 1016.2 |
| 20260901081014 | 27 | 129 | 12.9 | 12.9 | 0.00 | 0.00 | 0.00 | 58 | 1016.1 |
| 20260901080514 | 27 | 123 | 9.7 | 11.3 | 0.00 | 0.00 | 0.00 | 58 | 1016.1 |
| 20260901080014 | 27 | 119 | 9.7 | 11.3 | 0.00 | 0.00 | 0.00 | 58 | 1016.1 |
| 20260901075514 | 27 | 125 | 11.3 | 11.3 | 0.00 | 0.00 | 0.00 | 58 | 1016.1 |
| 20260901075015 | 27 | 115 | 8.0 | 11.3 | 0.00 | 0.00 | 0.00 | 58 | 1016.1 |
| 20260901074014 | 26 | 78 | 6.4 | 8.0 | 0.00 | 0.00 | 0.00 | 58 | 1016.1 |
| 20260901073514 | 27 | 71 | 6.4 | 11.3 | 0.00 | 0.00 | 0.00 | 57 | 1016.1 |
| 20260901072013 | 27 | 101 | 8.0 | 9.7 | 0.00 | 0.00 | 0.00 | 56 | 1016.2 |
| 20260901071514 | 27 | 96 | 8.0 | 9.7 | 0.00 | 0.00 | 0.00 | 57 | 1016.2 |
| 20260901070513 | 27 | 84 | 8.0 | 11.3 | 0.00 | 0.00 | 0.00 | 56 | 1016.1 |
| 20260901070013 | 27 | 81 | 9.7 | 11.3 | 0.00 | 0.00 | 0.00 | 55 | 1016.1 |
| 20260901065513 | 27 | 79 | 8.0 | 12.9 | 0.00 | 0.00 | 0.00 | 54 | 1016.1 |
| 20260901064513 | 27 | 95 | 9.7 | 11.3 | 0.00 | 0.00 | 0.00 | 53 | 1016.0 |
| 20260901064013 | 28 | 105 | 8.0 | 9.7 | 0.00 | 0.00 | 0.00 | 52 | 1016.0 |
| 20260901063514 | 28 | 103 | 8.0 | 8.0 | 0.00 | 0.00 | 0.00 | 53 | 1016.0 |
| 20260901063013 | 27 | 102 | 8.0 | 12.9 | 0.00 | 0.00 | 0.00 | 53 | 1016.0 |
| 20260901062514 | 27 | 76 | 4.8 | 16.1 | 0.00 | 0.00 | 0.00 | 53 | 1016.0 |
| 20260901062014 | 27 | 56 | 9.7 | 16.1 | 0.00 | 0.00 | 0.00 | 52 | 1016.1 |
| 20260901061013 | 28 | 35 | 8.0 | 9.7 | 0.00 | 0.00 | 0.00 | 49 | 1015.8 |
| 20260901060513 | 28 | 29 | 8.0 | 9.7 | 0.00 | 0.00 | 0.00 | 48 | 1015.7 |
| 20260901060013 | 28 | 33 | 8.0 | 9.7 | 0.00 | 0.00 | 0.00 | 48 | 1015.7 |
| 20260901055513 | 28 | 37 | 8.0 | 11.3 | 0.00 | 0.00 | 0.00 | 47 | 1015.7 |
| 20260901055013 | 28 | 36 | 8.0 | 19.3 | 0.00 | 0.00 | 0.00 | 48 | 1015.7 |
| 20260901054513 | 28 | 62 | 11.3 | 19.3 | 0.00 | 0.00 | 0.00 | 47 | 1015.7 |
| 20260901054013 | 29 | 74 | 12.9 | 12.9 | 0.00 | 0.00 | 0.00 | 45 | 1015.6 |
| 20260901053513 | 30 | 200 | 4.8 | 6.4 | 0.00 | 0.00 | 0.00 | 44 | 1015.5 |
| 20260901053013 | 30 | 191 | 4.8 | 6.4 | 0.00 | 0.00 | 0.00 | 44 | 1015.4 |
| 20260901052513 | 30 | 183 | 6.4 | 6.4 | 0.00 | 0.00 | 0.00 | 43 | 1015.4 |
| 20260901052013 | 30 | 180 | 6.4 | 8.0 | 0.00 | 0.00 | 0.00 | 43 | 1015.3 |
| 20260901051513 | 30 | 185 | 6.4 | 8.0 | 0.00 | 0.00 | 0.00 | 43 | 1015.3 |
| 20260901051013 | 30 | 164 | 8.0 | 9.7 | 0.00 | 0.00 | 0.00 | 43 | 1015.3 |
| 20260901050513 | 30 | 163 | 8.0 | 9.7 | 0.00 | 0.00 | 0.00 | 42 | 1015.3 |
| 20260901050013 | 30 | 169 | 8.0 | 11.3 | 0.00 | 0.00 | 0.00 | 42 | 1015.3 |
| 20260901045513 | 30 | 165 | 9.7 | 11.3 | 0.00 | 0.00 | 0.00 | 42 | 1015.3 |
| 20260901045013 | 30 | 164 | 9.7 | 11.3 | 0.00 | 0.00 | 0.00 | 42 | 1015.3 |
| 20260901044012 | 30 | 164 | 9.7 | 11.3 | 0.00 | 0.00 | 0.00 | 42 | 1015.2 |
| 20260901043513 | 30 | 145 | 9.7 | 9.7 | 0.00 | 0.00 | 0.00 | 42 | 1015.1 |
| 20260901043012 | 30 | 135 | 8.0 | 9.7 | 0.00 | 0.00 | 0.00 | 42 | 1015.1 |
| 20260901042512 | 30 | 140 | 8.0 | 8.0 | 0.00 | 0.00 | 0.00 | 42 | 1015.1 |
| 20260901042012 | 30 | 126 | 6.4 | 8.0 | 0.00 | 0.00 | 0.00 | 42 | 1015.1 |
| 20260901041512 | 30 | 117 | 6.4 | 6.4 | 0.00 | 0.00 | 0.00 | 43 | 1015.2 |
| 20260901040512 | 29 | 86 | 4.8 | 6.4 | 0.00 | 0.00 | 0.00 | 44 | 1015.3 |
| 20260901040013 | 30 | 45 | 4.8 | 6.4 | 0.00 | 0.00 | 0.00 | 44 | 1015.3 |
| 20260901035513 | 30 | 93 | 4.8 | 6.4 | 0.00 | 0.00 | 0.00 | 43 | 1015.3 |
| 20260901035013 | 29 | 91 | 6.4 | 8.0 | 0.00 | 0.00 | 0.00 | 43 | 1015.3 |
| 20260901033512 | 31 | 119 | 6.4 | 8.0 | 0.00 | 0.00 | 0.00 | 40 | 1015.2 |
| 20260901033013 | 31 | 152 | 8.0 | 8.0 | 0.00 | 0.00 | 0.00 | 40 | 1015.2 |
| 20260901032512 | 31 | 162 | 6.4 | 8.0 | 0.00 | 0.00 | 0.00 | 40 | 1015.2 |
| 20260901032013 | 31 | 167 | 6.4 | 8.0 | 0.00 | 0.00 | 0.00 | 40 | 1015.1 |
| 20260901031012 | 31 | 182 | 6.4 | 6.4 | 0.00 | 0.00 | 0.00 | 39 | 1015.1 |
| 20260901030512 | 31 | 176 | 4.8 | 6.4 | 0.00 | 0.00 | 0.00 | 39 | 1015.1 |
| 20260901030013 | 31 | 190 | 6.4 | 6.4 | 0.00 | 0.00 | 0.00 | 40 | 1015.0 |
| 20260901025513 | 31 | 199 | 6.4 | 6.4 | 0.00 | 0.00 | 0.00 | 40 | 1015.0 |
| 20260901025013 | 31 | 206 | 6.4 | 6.4 | 0.00 | 0.00 | 0.00 | 40 | 1014.9 |
| 20260901024512 | 31 | 193 | 4.8 | 8.0 | 0.00 | 0.00 | 0.00 | 40 | 1014.9 |
| 20260901023512 | 32 | 211 | 8.0 | 11.3 | 0.00 | 0.00 | 0.00 | 38 | 1014.8 |
| 20260901023012 | 32 | 157 | 8.0 | 9.7 | 0.00 | 0.00 | 0.00 | 37 | 1014.7 |
| 20260901022512 | 32 | 144 | 8.0 | 11.3 | 0.00 | 0.00 | 0.00 | 37 | 1014.6 |
| 20260901022012 | 32 | 133 | 9.7 | 11.3 | 0.00 | 0.00 | 0.00 | 37 | 1014.6 |
| 20260901021012 | 32 | 133 | 8.0 | 9.7 | 0.00 | 0.00 | 0.00 | 37 | 1014.5 |
| 20260901020514 | 32 | 123 | 8.0 | 8.0 | 0.00 | 0.00 | 0.00 | 37 | 1014.5 |
| 20260901015512 | 31 | 123 | 8.0 | 11.3 | 0.00 | 0.00 | 0.00 | 38 | 1014.3 |
| 20260901015013 | 32 | 110 | 8.0 | 11.3 | 0.00 | 0.00 | 0.00 | 38 | 1014.3 |
| 20260901014011 | 32 | 131 | 9.7 | 11.3 | 0.00 | 0.00 | 0.00 | 37 | 1014.2 |
| 20260901013513 | 32 | 133 | 8.0 | 9.7 | 0.00 | 0.00 | 0.00 | 37 | 1014.1 |
| 20260901013011 | 32 | 140 | 9.7 | 9.7 | 0.00 | 0.00 | 0.00 | 37 | 1014.1 |
| 20260901012512 | 32 | 122 | 8.0 | 9.7 | 0.00 | 0.00 | 0.00 | 37 | 1014.1 |
| 20260901011011 | 33 | 131 | 8.0 | 11.3 | 0.00 | 0.00 | 0.00 | 35 | 1014.0 |
| 20260901010511 | 33 | 137 | 11.3 | 12.9 | 0.00 | 0.00 | 0.00 | 35 | 1014.0 |
| 20260901005511 | 33 | 130 | 9.7 | 11.3 | 0.00 | 0.00 | 0.00 | 34 | 1014.0 |
| 20260901004511 | 34 | 137 | 9.7 | 14.5 | 0.00 | 0.00 | 0.00 | 33 | 1014.0 |
| 20260901004011 | 34 | 141 | 8.0 | 12.9 | 0.00 | 0.00 | 0.00 | 33 | 1013.9 |
| 20260901003013 | 35 | 152 | 12.9 | 17.7 | 0.00 | 0.00 | 0.00 | 32 | 1013.9 |
| 20260901002512 | 35 | 145 | 12.9 | 17.7 | 0.00 | 0.00 | 0.00 | 32 | 1013.9 |
| 20260901001511 | 35 | 139 | 14.5 | 25.7 | 0.00 | 0.00 | 0.00 | 32 | 1013.9 |
| 20260901001011 | 35 | 135 | 20.9 | 25.7 | 0.00 | 0.00 | 0.00 | 32 | 1013.8 |
| 20260901000510 | 35 | 142 | 14.5 | 20.9 | 0.00 | 0.00 | 0.00 | 32 | 1013.9 |
| 20260901000011 | 35 | 145 | 14.5 | 22.5 | 0.00 | 0.00 | 0.00 | 32 | 1013.8 |
| 20260831235510 | 35 | 144 | 17.7 | 22.5 | 0.00 | 0.00 | 0.00 | 31 | 1013.7 |
| 20260831235010 | 35 | 174 | 17.7 | 24.1 | 0.00 | 0.00 | 0.00 | 31 | 1013.8 |
| 20260831234540 | 35 | 144 | 19.3 | 24.1 | 0.00 | 0.00 | 0.00 | 31 | 1013.8 |
| 20260831233510 | 35 | 201 | 14.5 | 24.1 | 0.00 | 0.00 | 0.00 | 30 | 1013.9 |
| 20260831233010 | 36 | 170 | 16.1 | 24.1 | 0.00 | 0.00 | 0.00 | 30 | 1013.8 |
| 20260831232540 | 36 | 164 | 24.1 | 25.7 | 0.00 | 0.00 | 0.00 | 30 | 1013.7 |
| 20260831231510 | 36 | 168 | 24.1 | 27.4 | 0.00 | 0.00 | 0.00 | 30 | 1013.7 |
| 20260831231010 | 36 | 154 | 22.5 | 27.4 | 0.00 | 0.00 | 0.00 | 30 | 1013.7 |
| 20260831230510 | 36 | 163 | 17.7 | 22.5 | 0.00 | 0.00 | 0.00 | 29 | 1013.8 |
| 20260831230010 | 36 | 155 | 12.9 | 25.7 | 0.00 | 0.00 | 0.00 | 30 | 1013.8 |
| 20260831225510 | 36 | 184 | 14.5 | 25.7 | 0.00 | 0.00 | 0.00 | 30 | 1013.9 |
| 20260831225009 | 36 | 182 | 11.3 | 17.7 | 0.00 | 0.00 | 0.00 | 30 | 1013.9 |
| 20260831224510 | 36 | 208 | 14.5 | 25.7 | 0.00 | 0.00 | 0.00 | 30 | 1014.0 |
| 20260831224009 | 36 | 191 | 17.7 | 27.4 | 0.00 | 0.00 | 0.00 | 30 | 1014.0 |
| 20260831223510 | 36 | 195 | 24.1 | 27.4 | 0.00 | 0.00 | 0.00 | 29 | 1014.0 |
| 20260831223009 | 36 | 156 | 14.5 | 27.4 | 0.00 | 0.00 | 0.00 | 30 | 1014.1 |
| 20260831222509 | 36 | 134 | 24.1 | 24.1 | 0.00 | 0.00 | 0.00 | 29 | 1014.0 |
| 20260831222009 | 36 | 176 | 8.0 | 20.9 | 0.00 | 0.00 | 0.00 | 28 | 1014.1 |
| 20260831221509 | 36 | 191 | 20.9 | 30.6 | 0.00 | 0.00 | 0.00 | 28 | 1014.1 |
| 20260831221009 | 36 | 151 | 17.7 | 30.6 | 0.00 | 0.00 | 0.00 | 29 | 1014.2 |
| 20260831220509 | 37 | 151 | 22.5 | 24.1 | 0.00 | 0.00 | 0.00 | 30 | 1014.2 |
| 20260831220009 | 37 | 183 | 19.3 | 24.1 | 0.00 | 0.00 | 0.00 | 29 | 1014.2 |
| 20260831215509 | 36 | 135 | 17.7 | 25.7 | 0.00 | 0.00 | 0.00 | 29 | 1014.2 |
| 20260831215009 | 36 | 165 | 11.3 | 25.7 | 0.00 | 0.00 | 0.00 | 29 | 1014.3 |
| 20260831214509 | 36 | 163 | 19.3 | 32.2 | 0.00 | 0.00 | 0.00 | 28 | 1014.4 |
| 20260831213509 | 36 | 134 | 11.3 | 25.7 | 0.00 | 0.00 | 0.00 | 31 | 1014.4 |
| 20260831213008 | 36 | 171 | 17.7 | 27.4 | 0.00 | 0.00 | 0.00 | 29 | 1014.5 |
| 20260831212009 | 36 | 129 | 17.7 | 32.2 | 0.00 | 0.00 | 0.00 | 28 | 1014.6 |
| 20260831211508 | 36 | 178 | 17.7 | 32.2 | 0.00 | 0.00 | 0.00 | 28 | 1014.5 |
| 20260831211008 | 36 | 164 | 20.9 | 27.4 | 0.00 | 0.00 | 0.00 | 29 | 1014.6 |
| 20260831210508 | 36 | 122 | 24.1 | 27.4 | 0.00 | 0.00 | 0.00 | 27 | 1014.6 |
| 20260831205508 | 36 | 210 | 17.7 | 25.7 | 0.00 | 0.00 | 0.00 | 28 | 1014.8 |
| 20260831205008 | 36 | 208 | 16.1 | 29.0 | 0.00 | 0.00 | 0.00 | 28 | 1015.0 |
| 20260831204508 | 36 | 177 | 16.1 | 33.8 | 0.00 | 0.00 | 0.00 | 27 | 1015.0 |
| 20260831204008 | 36 | 154 | 29.0 | 33.8 | 0.00 | 0.00 | 0.00 | 29 | 1014.9 |
| 20260831203008 | 35 | 166 | 17.7 | 29.0 | 0.00 | 0.00 | 0.00 | 30 | 1015.2 |
| 20260831202508 | 35 | 152 | 24.1 | 29.0 | 0.00 | 0.00 | 0.00 | 31 | 1015.3 |
| 20260831201507 | 35 | 156 | 20.9 | 30.6 | 0.00 | 0.00 | 0.00 | 32 | 1015.4 |
| 20260831201007 | 35 | 124 | 20.9 | 33.8 | 0.00 | 0.00 | 0.00 | 32 | 1015.4 |
| 20260831200508 | 35 | 166 | 20.9 | 33.8 | 0.00 | 0.00 | 0.00 | 32 | 1015.4 |
| 20260831200007 | 35 | 175 | 19.3 | 33.8 | 0.00 | 0.00 | 0.00 | 31 | 1015.4 |
| 20260831195007 | 36 | 197 | 19.3 | 32.2 | 0.00 | 0.00 | 0.00 | 31 | 1015.5 |
| 20260831194507 | 35 | 162 | 14.5 | 24.1 | 0.00 | 0.00 | 0.00 | 31 | 1015.6 |
| 20260831193507 | 35 | 117 | 20.9 | 32.2 | 0.00 | 0.00 | 0.00 | 33 | 1015.8 |
| 20260831193007 | 35 | 128 | 16.1 | 32.2 | 0.00 | 0.00 | 0.00 | 32 | 1015.8 |
| 20260831192507 | 35 | 133 | 24.1 | 29.0 | 0.00 | 0.00 | 0.00 | 32 | 1015.8 |
| 20260831192007 | 35 | 176 | 20.9 | 25.7 | 0.00 | 0.00 | 0.00 | 34 | 1015.8 |
| 20260831191508 | 36 | 157 | 24.1 | 32.2 | 0.00 | 0.00 | 0.00 | 33 | 1015.8 |
| 20260831191007 | 35 | 170 | 16.1 | 32.2 | 0.00 | 0.00 | 0.00 | 33 | 1016.0 |
| 20260831190507 | 35 | 194 | 8.0 | 32.2 | 0.00 | 0.00 | 0.00 | 33 | 1016.1 |
| 20260831190007 | 35 | 138 | 32.2 | 32.2 | 0.00 | 0.00 | 0.00 | 33 | 1015.9 |
| 20260831185507 | 35 | 149 | 11.3 | 29.0 | 0.00 | 0.00 | 0.00 | 33 | 1016.1 |
| 20260831185006 | 35 | 217 | 17.7 | 29.0 | 0.00 | 0.00 | 0.00 | 32 | 1016.2 |
| 20260831184006 | 35 | 143 | 20.9 | 32.2 | 0.00 | 0.00 | 0.00 | 34 | 1016.3 |
| 20260831183536 | 34 | 165 | 12.9 | 32.2 | 0.00 | 0.00 | 0.00 | 33 | 1016.4 |
| 20260831183006 | 35 | 130 | 17.7 | 30.6 | 0.00 | 0.00 | 0.00 | 33 | 1016.3 |
| 20260831182506 | 35 | 187 | 16.1 | 27.4 | 0.00 | 0.00 | 0.00 | 34 | 1016.5 |
| 20260831182006 | 35 | 174 | 14.5 | 27.4 | 0.00 | 0.00 | 0.00 | 34 | 1016.6 |
| 20260831181508 | 35 | 178 | 22.5 | 35.4 | 0.00 | 0.00 | 0.00 | 32 | 1016.6 |
| 20260831181007 | 35 | 152 | 17.7 | 35.4 | 0.00 | 0.00 | 0.00 | 33 | 1016.7 |
| 20260831180506 | 35 | 179 | 16.1 | 29.0 | 0.00 | 0.00 | 0.00 | 34 | 1016.8 |
| 20260831180006 | 35 | 212 | 27.4 | 29.0 | 0.00 | 0.00 | 0.00 | 34 | 1016.9 |
| 20260831175506 | 35 | 164 | 17.7 | 32.2 | 0.00 | 0.00 | 0.00 | 33 | 1016.9 |
| 20260831174506 | 35 | 179 | 17.7 | 29.0 | 0.00 | 0.00 | 0.00 | 34 | 1017.1 |
| 20260831174006 | 35 | 197 | 16.1 | 29.0 | 0.00 | 0.00 | 0.00 | 35 | 1017.1 |
| 20260831173507 | 35 | 171 | 20.9 | 30.6 | 0.00 | 0.00 | 0.00 | 35 | 1017.1 |
| 20260831173006 | 35 | 187 | 14.5 | 30.6 | 0.00 | 0.00 | 0.00 | 35 | 1017.3 |
| 20260831172506 | 35 | 202 | 25.7 | 29.0 | 0.00 | 0.00 | 0.00 | 35 | 1017.2 |
| 20260831172006 | 34 | 176 | 25.7 | 29.0 | 0.00 | 0.00 | 0.00 | 35 | 1017.2 |
| 20260831171505 | 34 | 195 | 11.3 | 29.0 | 0.00 | 0.00 | 0.00 | 35 | 1017.4 |
| 20260831171006 | 35 | 170 | 14.5 | 29.0 | 0.00 | 0.00 | 0.00 | 35 | 1017.4 |
| 20260831170506 | 34 | 196 | 8.0 | 25.7 | 0.00 | 0.00 | 0.00 | 36 | 1017.4 |
| 20260831165505 | 34 | 189 | 14.5 | 25.7 | 0.00 | 0.00 | 0.00 | 36 | 1017.4 |
| 20260831164505 | 34 | 194 | 14.5 | 29.0 | 0.00 | 0.00 | 0.00 | 37 | 1017.5 |
| 20260831164005 | 33 | 223 | 22.5 | 29.0 | 0.00 | 0.00 | 0.00 | 37 | 1017.5 |
| 20260831163505 | 33 | 160 | 19.3 | 29.0 | 0.00 | 0.00 | 0.00 | 38 | 1017.5 |
| 20260831163005 | 34 | 216 | 20.9 | 32.2 | 0.00 | 0.00 | 0.00 | 37 | 1017.5 |
| 20260831162507 | 33 | 224 | 20.9 | 32.2 | 0.00 | 0.00 | 0.00 | 38 | 1017.5 |
| 20260831162005 | 33 | 182 | 19.3 | 29.0 | 0.00 | 0.00 | 0.00 | 38 | 1017.5 |
| 20260831161506 | 33 | 194 | 22.5 | 24.1 | 0.00 | 0.00 | 0.00 | 38 | 1017.5 |
| 20260831153510 | 32 | 194 | 17.7 | 25.7 | 0.00 | 0.00 | 0.00 | 43 | 1017.5 |
| 20260831152531 | 32 | 190 | 14.5 | 29.0 | 0.00 | 0.00 | 0.00 | 43 | 1017.5 |
| 20260831152037 | 31 | 199 | 14.5 | 29.0 | 0.00 | 0.00 | 0.00 | 45 | 1017.5 |
| 20260831151531 | 31 | 219 | 19.3 | 27.4 | 0.00 | 0.00 | 0.00 | 44 | 1017.5 |
| 20260831150002 | 31 | 214 | 19.3 | 24.1 | 0.00 | 0.00 | 0.00 | 48 | 1017.5 |
| 20260831145531 | 30 | 210 | 20.9 | 27.4 | 0.00 | 0.00 | 0.00 | 49 | 1017.5 |
| 20260831145003 | 30 | 199 | 19.3 | 27.4 | 0.00 | 0.00 | 0.00 | 52 | 1017.5 |
| 20260831144501 | 30 | 202 | 12.9 | 27.4 | 0.00 | 0.00 | 0.00 | 54 | 1017.5 |
| 20260831144001 | 30 | 213 | 27.4 | 27.4 | 0.00 | 0.00 | 0.00 | 55 | 1017.5 |
| 20260831143010 | 30 | 207 | 14.5 | 24.1 | 0.00 | 0.00 | 0.00 | 56 | 1017.5 |
| 20260831142501 | 29 | 224 | 24.1 | 25.7 | 0.00 | 0.00 | 0.00 | 56 | 1017.5 |
| 20260831142003 | 30 | 229 | 24.1 | 25.7 | 0.00 | 0.00 | 0.00 | 56 | 1017.4 |
| 20260831141501 | 29 | 206 | 17.7 | 24.1 | 0.00 | 0.00 | 0.00 | 58 | 1017.4 |
| 20260831141001 | 29 | 201 | 19.3 | 24.1 | 0.00 | 0.00 | 0.00 | 58 | 1017.4 |
| 20260831140501 | 29 | 191 | 14.5 | 24.1 | 0.00 | 0.00 | 0.00 | 59 | 1017.3 |
| 20260831140031 | 29 | 202 | 14.5 | 20.9 | 0.00 | 0.00 | 0.00 | 60 | 1017.4 |
| 20260831135531 | 28 | 204 | 14.5 | 19.3 | 0.00 | 0.00 | 0.00 | 62 | 1017.4 |
| 20260831135030 | 28 | 189 | 14.5 | 17.7 | 0.00 | 0.00 | 0.00 | 63 | 1017.3 |
| 20260831134530 | 28 | 202 | 11.3 | 17.7 | 0.00 | 0.00 | 0.00 | 64 | 1017.3 |
| 20260831134030 | 28 | 206 | 16.1 | 17.7 | 0.00 | 0.00 | 0.00 | 64 | 1017.2 |
| 20260831133505 | 27 | 196 | 17.7 | 17.7 | 0.00 | 0.00 | 0.00 | 65 | 1017.2 |
| 20260831133001 | 27 | 210 | 6.4 | 11.3 | 0.00 | 0.00 | 0.00 | 66 | 1017.2 |
| 20260831132505 | 27 | 205 | 9.7 | 11.3 | 0.00 | 0.00 | 0.00 | 67 | 1017.2 |
| 20260831132001 | 27 | 154 | 4.8 | 11.3 | 0.00 | 0.00 | 0.00 | 68 | 1017.1 |
| 20260831131500 | 26 | 215 | 9.7 | 11.3 | 0.00 | 0.00 | 0.00 | 68 | 1017.1 |
| 20260831131000 | 26 | 188 | 6.4 | 8.0 | 0.00 | 0.00 | 0.00 | 69 | 1017.0 |
| 20260831130500 | 26 | 206 | 6.4 | 8.0 | 0.00 | 0.00 | 0.00 | 69 | 1016.8 |
| 20260831125500 | 26 | 175 | 4.8 | 8.0 | 0.00 | 0.00 | 0.00 | 71 | 1016.6 |
| 20260831125000 | 25 | 168 | 6.4 | 8.0 | 0.00 | 0.00 | 0.00 | 72 | 1016.5 |
| 20260831124500 | 25 | 141 | 6.4 | 8.0 | 0.00 | 0.00 | 0.00 | 72 | 1016.4 |
| 20260831123959 | 25 | 141 | 4.8 | 8.0 | 0.00 | 0.00 | 0.00 | 73 | 1016.3 |
| 20260831123500 | 25 | 162 | 8.0 | 9.7 | 0.00 | 0.00 | 0.00 | 72 | 1016.3 |
| 20260831122530 | 25 | 144 | 8.0 | 9.7 | 0.00 | 0.00 | 0.00 | 72 | 1016.1 |
| 20260831122000 | 25 | 139 | 6.4 | 9.7 | 0.00 | 0.00 | 0.00 | 72 | 1016.1 |
| 20260831121030 | 25 | 147 | 8.0 | 9.7 | 0.00 | 0.00 | 0.00 | 72 | 1016.0 |
| 20260831120530 | 25 | 182 | 3.2 | 6.4 | 0.00 | 0.00 | 0.00 | 71 | 1015.8 |
| 20260831115530 | 25 | 187 | 4.8 | 6.4 | 0.00 | 0.00 | 0.00 | 71 | 1015.6 |
| 20260831115029 | 25 | 189 | 4.8 | 6.4 | 0.00 | 0.00 | 0.00 | 71 | 1015.6 |
| 20260831114529 | 25 | 169 | 6.4 | 6.4 | 0.00 | 0.00 | 0.00 | 70 | 1015.6 |
| 20260831114029 | 25 | 185 | 6.4 | 6.4 | 0.00 | 0.00 | 0.00 | 70 | 1015.5 |
| 20260831113029 | 25 | 191 | 6.4 | 8.0 | 0.00 | 0.00 | 0.00 | 70 | 1015.5 |
| 20260831112529 | 25 | 191 | 6.4 | 9.7 | 0.00 | 0.00 | 0.00 | 69 | 1015.5 |
| 20260831112029 | 25 | 199 | 8.0 | 9.7 | 0.00 | 0.00 | 0.00 | 69 | 1015.4 |
| 20260831110959 | 26 | 225 | 9.7 | 9.7 | 0.00 | 0.00 | 0.00 | 68 | 1015.3 |
| 20260831110459 | 26 | 197 | 6.4 | 8.0 | 0.00 | 0.00 | 0.00 | 68 | 1015.3 |
| 20260831105959 | 26 | 177 | 8.0 | 9.7 | 0.00 | 0.00 | 0.00 | 68 | 1015.3 |
| 20260831105459 | 26 | 179 | 9.7 | 9.7 | 0.00 | 0.00 | 0.00 | 68 | 1015.3 |
| 20260831104959 | 26 | 193 | 6.4 | 9.7 | 0.00 | 0.00 | 0.00 | 68 | 1015.3 |
| 20260831104529 | 26 | 211 | 8.0 | 11.3 | 0.00 | 0.00 | 0.00 | 67 | 1015.3 |
| 20260831104028 | 26 | 203 | 8.0 | 11.3 | 0.00 | 0.00 | 0.00 | 67 | 1015.2 |